Regional Weather Roundup
Issued by NWS

Home | Current Version | Previous Version | Graphics & Text | Print | Product List | Glossary On
Versions: 1 2 3 4 5 6 7 8 9 10 11 12 13 14 15 16 17 18 19 20 21 22 23 24 25 26 27 28 29 30 31 32 33 34 35 36 37 38 39 40 41 42 43 44 45 46 47 48 49 50
000
ASUS43 KLOT 211612
RWRIL

ILLINOIS REGIONAL WEATHER ROUNDUP
NATIONAL WEATHER SERVICE CHICAGO/ROMEOVILLE IL
1000 AM CST TUE FEB 21 2017

NOTE: "FAIR" INDICATES FEW OR NO CLOUDS BELOW 12,000 FEET WITH NO
SIGNIFICANT WEATHER AND/OR OBSTRUCTIONS TO VISIBILITY.

* THESE STATIONS ARE NOT UNDER NWS QUALITY CONTROL. THEY ALSO MAY NOT
  REPORT WEATHER SUCH AS PRECIPITATION OR FOG.

ILZ001-002-007-009-015-016-024-211700-
NORTHWEST ILLINOIS

CITY           SKY/WX    TMP DP  RH WIND       PRES   REMARKS
MOLINE         CLOUDY    56  45  66 NW3       29.97R
STERLING*      CLOUDY    53  46  77 N3        29.97R
SAVANNA*       MOSUNNY   49  44  84 NW3       29.97R
$$

ILZ003-004-008-010-011-017-018-211700-
NORTH CENTRAL ILLINOIS

CITY           SKY/WX    TMP DP  RH WIND       PRES   REMARKS
ROCKFORD       PTSUNNY   52  46  80 W5        29.97S
FREEPORT*      PTSUNNY   48  44  85 CALM      29.98R
ROCHELLE*      PTSUNNY   53  48  84 CALM      29.96S
DE KALB*       CLOUDY    54  52  94 CALM      29.96S FOG
PERU*          CLOUDY    56  55  95 CALM      29.97R FOG
$$

ILZ005-006-012>014-019>023-211700-
NORTHEAST ILLINOIS

CITY           SKY/WX    TMP DP  RH WIND       PRES   REMARKS
CHICAGO-OHARE  CLOUDY    58  54  86 S8        29.94S FOG
CHICAGO-MIDWAY CLOUDY    58  54  86 SW7       29.95R
AURORA         CLOUDY    59  56  89 SW3       29.95S FOG
LANSING*       CLOUDY    56  56 100 S7        29.97R FOG
JOLIET*        CLOUDY    59  57  95 CALM      29.97R
WAUKEGAN       CLOUDY    57  51  80 W6        29.93S
DUPAGE AIRPORT CLOUDY    57  54  89 W8        29.95R FOG
KANKAKEE*      CLOUDY    55  54  97 CALM      29.97F
WHEELING       CLOUDY    57  54  89 W7        29.95S
MORRIS*        CLOUDY    57  55  92 CALM      29.96R
ROMEOVILLE*    PTSUNNY   57  57 100 SW8       29.97R
NORTHERLY ISL    N/A     57  53  86 W5          N/A
$$

LMZ740>746-211700-
SOUTHERN LAKE MICHIGAN

STATION/POSITION SKY/WX   TEMP    WIND        PRES    VSBY  WAVE
                          AIR SEA DIR/SP/G                  HT/PER
                          (F)     (DEG/KT/KT) (MB)    (MI)  (FT/S)
HARRISON CRIB              56     230/  5/  6   N/A
BURNHAM HARBOR             57     250/  5/  8   N/A
CALUMET HARBOR             57     210/  5/  8 1013.8R
BURNS HARBOR               53     200/  7/  8 1014.9R
MICHIGAN CITY              54     120/  8/  9   N/A
$$

ILZ025>027-034>036-040-047-049-050-058-095>099-211700-
WEST-CENTRAL ILLINOIS

CITY           SKY/WX    TMP DP  RH WIND       PRES   REMARKS
QUINCY         FOG       56  55  97 NE5       29.95S VSB<1/4
GALESBURG*     CLOUDY    54  51  91 N5        29.97R
MACOMB*        CLOUDY    56  56 100 E5        29.98R FOG
JACKSONVILLE*  CLOUDY    59  58  96 E3        29.95S
PITTSFIELD*    CLOUDY    60  59  99 E3        29.96S FOG
$$

ILZ028>032-037-038-041>044-048-051>054-059>061-211700-
CENTRAL ILLINOIS

CITY           SKY/WX    TMP DP  RH WIND       PRES   REMARKS
PONTIAC        CLOUDY    58  58  98 S3        29.97F
BLOOMINGTON    CLOUDY    58  56  93 N7        29.96F
DECATUR        LGT RAIN  58  54  86 E8        29.95S
PEORIA         CLOUDY    59  58  96 S6        29.95F FOG
LACON*         CLOUDY    58  58 100 SW3       29.95S FOG
LINCOLN*       CLOUDY    59  58  97 CALM      29.97R
SPRINGFIELD    CLOUDY    59  57  93 N8        29.96S FOG
TAYLORVILLE    LGT RAIN  57  55  92 SE8       29.95S
$$

ILZ033-039-045-046-055>057-062-063-211700-
EAST-CENTRAL ILLINOIS

CITY           SKY/WX    TMP DP  RH WIND       PRES   REMARKS
CHAMPAIGN      LGT RAIN  56  51  84 SE6       29.97S
RANTOUL*       LGT RAIN  56  55  94 CALM      29.97R
MATTOON        LGT RAIN  55  53  93 S5        29.97R
PARIS*         LGT RAIN  56  53  89 CALM      29.98F
$$

ILZ079-100>102-211700-
SOUTHWEST ILLINOIS

CITY           SKY/WX    TMP DP  RH WIND       PRES   REMARKS
ALTON          LGT RAIN  57  55  94 SE8       29.93F FOG
BELLEVILLE     LGT RAIN  57  57 100 E6        29.92S
CAHOKIA*       LGT RAIN  61  57  87 SE7       29.92F FOG
SPARTA*        CLOUDY    58  54  84 E6        29.95R
$$

ILZ064>066-069>071-074>076-080>082-084>086-088>090-092>094-211700-
SOUTH-CENTRAL ILLINOIS

CITY           SKY/WX    TMP DP  RH WIND       PRES   REMARKS
CARBONDALE     CLOUDY    60  51  72 E7        29.94S
CAIRO*         CLOUDY    60  53  78 NE9       29.90F
EFFINGHAM*     RAIN      55  55  98 CALM      29.98F
MARION         PTSUNNY   63  50  63 E5        29.95S
MT. VERNON     CLOUDY    59  50  72 E5        29.97R
CENTRALIA*     CLOUDY    59  54  82 E3        29.95R
SALEM*         DRIZZLE   58  52  79 SE5       29.96R
METROPOLIS*    PTSUNNY   61  54  76 CALM      29.94S
$$

ILZ067-068-072-073-078-083-087-091-211700-
SOUTHEAST ILLINOIS

CITY           SKY/WX    TMP DP  RH WIND       PRES   REMARKS
LAWRENCEVILLE  CLOUDY    60  48  64 S5        29.98S
FLORA*         CLOUDY    58  52  79 SE3       29.98R
FAIRFIELD*     CLOUDY    58  51  76 CALM      29.97R
HARRISBURG*    CLOUDY    59  52  79 E3        29.96F
ROBINSON*      CLOUDY    55  49  80 CALM      29.98F
CARMI*         CLOUDY    59  52  78 CALM      29.97S
$$

ABBREVIATIONS USED IN REMARKS
   TC - TEMPERATURE IN CELSIUS
  WCI - WIND CHILL INDEX
   HX - HEAT INDEX
  VSB - VISIBILITY
$$




USA.gov is the U.S. government's official web portal to all federal, state and local government web resources and services.